TimeCST,TemperatureF,Dew PointF,Humidity,Sea Level PressureIn,VisibilityMPH,Wind Direction,Wind SpeedMPH,Gust SpeedMPH,PrecipitationIn,Events,Conditions,WindDirDegrees,DateUTC
12:15 AM,11.5,2.7,68,30.38,10.0,NNW,6.9,-,N/A,,Clear,330,2013-02-20 06:15:00
12:35 AM,10.9,2.3,68,30.38,10.0,NW,5.8,-,N/A,,Clear,320,2013-02-20 06:35:00
12:55 AM,10.8,2.3,69,30.38,10.0,Calm,Calm,-,N/A,,Clear,0,2013-02-20 06:55:00
1:15 AM,10.2,2.3,70,30.39,10.0,Calm,Calm,-,N/A,,Clear,0,2013-02-20 07:15:00
1:35 AM,10.0,2.3,71,30.39,10.0,Calm,Calm,-,N/A,,Clear,0,2013-02-20 07:35:00
1:55 AM,9.5,2.1,72,30.39,10.0,North,4.6,-,N/A,,Clear,360,2013-02-20 07:55:00
2:15 AM,9.3,1.8,71,30.39,10.0,North,3.5,-,N/A,,Clear,360,2013-02-20 08:15:00
2:35 AM,9.0,1.9,73,30.39,10.0,North,3.5,-,N/A,,Clear,350,2013-02-20 08:35:00
3:15 AM,8.4,1.4,73,30.38,10.0,Calm,Calm,-,N/A,,Clear,0,2013-02-20 09:15:00
3:35 AM,8.2,1.0,72,30.37,10.0,North,3.5,-,N/A,,Clear,10,2013-02-20 09:35:00
3:55 AM,8.1,0.7,72,30.36,10.0,NNE,9.2,-,N/A,,Clear,30,2013-02-20 09:55:00
4:15 AM,7.7,0.5,72,30.36,10.0,Calm,Calm,-,N/A,,Clear,0,2013-02-20 10:15:00
4:35 AM,7.5,-0.0,71,30.36,10.0,NE,4.6,-,N/A,,Clear,50,2013-02-20 10:35:00
4:55 AM,7.2,-0.4,71,30.35,10.0,NNE,4.6,-,N/A,,Clear,30,2013-02-20 10:55:00
5:15 AM,7.2,-0.4,71,30.35,10.0,NE,6.9,-,N/A,,Clear,50,2013-02-20 11:15:00
5:35 AM,7.2,-0.9,69,30.35,10.0,ENE,4.6,-,N/A,,Clear,60,2013-02-20 11:35:00
5:55 AM,6.8,-0.9,71,30.34,10.0,ENE,4.6,-,N/A,,Clear,60,2013-02-20 11:55:00
6:15 AM,6.6,-1.1,71,30.35,10.0,Calm,Calm,-,N/A,,Clear,0,2013-02-20 12:15:00
6:55 AM,6.6,-1.1,71,30.35,10.0,ENE,5.8,-,N/A,,Clear,70,2013-02-20 12:55:00
7:15 AM,6.6,-1.3,70,30.36,10.0,ENE,3.5,-,N/A,,Clear,60,2013-02-20 13:15:00
7:35 AM,6.6,-1.3,70,30.36,10.0,ENE,6.9,-,N/A,,Clear,70,2013-02-20 13:35:00
7:55 AM,6.8,-1.1,70,30.37,10.0,East,4.6,-,N/A,,Scattered Clouds,80,2013-02-20 13:55:00
8:15 AM,7.7,-0.9,68,30.38,10.0,East,4.6,-,N/A,,Overcast,80,2013-02-20 14:15:00
8:35 AM,8.4,-0.6,67,30.38,10.0,East,5.8,-,N/A,,Mostly Cloudy,90,2013-02-20 14:35:00
8:55 AM,8.6,-0.2,67,30.37,10.0,East,5.8,-,N/A,,Scattered Clouds,100,2013-02-20 14:55:00
9:15 AM,9.9,1.0,68,30.37,10.0,ESE,4.6,-,N/A,,Clear,110,2013-02-20 15:15:00
9:35 AM,10.2,0.9,66,30.38,10.0,ESE,8.1,-,N/A,,Clear,110,2013-02-20 15:35:00
9:55 AM,12.2,1.2,61,30.38,10.0,ESE,9.2,-,N/A,,Clear,120,2013-02-20 15:55:00
10:15 AM,12.9,1.9,62,30.38,10.0,ESE,6.9,-,N/A,,Scattered Clouds,120,2013-02-20 16:15:00
10:35 AM,13.8,1.9,59,30.38,10.0,SE,8.1,-,N/A,,Scattered Clouds,130,2013-02-20 16:35:00
10:55 AM,14.7,2.3,58,30.38,10.0,East,6.9,-,N/A,,Mostly Cloudy,100,2013-02-20 16:55:00
11:15 AM,15.6,2.8,57,30.38,10.0,Calm,Calm,-,N/A,,Overcast,0,2013-02-20 17:15:00
11:35 AM,16.7,3.0,55,30.37,10.0,East,6.9,-,N/A,,Mostly Cloudy,90,2013-02-20 17:35:00
11:55 AM,17.4,3.4,54,30.37,10.0,ESE,5.8,-,N/A,,Scattered Clouds,110,2013-02-20 17:55:00
12:15 PM,18.5,3.9,53,30.37,10.0,SE,6.9,-,N/A,,Clear,140,2013-02-20 18:15:00
12:35 PM,18.9,4.3,53,30.35,10.0,SSE,5.8,-,N/A,,Scattered Clouds,150,2013-02-20 18:35:00
12:55 PM,19.2,4.5,53,30.34,10.0,ESE,6.9,-,N/A,,Scattered Clouds,120,2013-02-20 18:55:00
1:15 PM,20.1,5.0,52,30.32,10.0,SE,5.8,-,N/A,,Clear,140,2013-02-20 19:15:00
1:35 PM,20.7,5.0,51,30.31,10.0,ESE,5.8,-,N/A,,Scattered Clouds,120,2013-02-20 19:35:00
1:55 PM,20.8,5.2,51,30.30,10.0,East,5.8,-,N/A,,Overcast,100,2013-02-20 19:55:00
2:15 PM,21.4,5.2,50,30.28,10.0,East,6.9,-,N/A,,Overcast,100,2013-02-20 20:15:00
2:35 PM,22.3,5.4,48,30.26,10.0,ESE,6.9,-,N/A,,Overcast,110,2013-02-20 20:35:00
2:55 PM,23.0,6.1,48,30.27,10.0,East,5.8,-,N/A,,Overcast,80,2013-02-20 20:55:00
3:15 PM,23.5,6.3,48,30.26,10.0,East,5.8,-,N/A,,Overcast,90,2013-02-20 21:15:00
3:35 PM,23.9,6.8,48,30.26,10.0,East,5.8,-,N/A,,Overcast,100,2013-02-20 21:35:00
3:55 PM,24.3,6.3,46,30.25,10.0,ESE,8.1,-,N/A,,Overcast,120,2013-02-20 21:55:00
4:15 PM,24.6,6.1,45,30.25,10.0,ESE,8.1,-,N/A,,Overcast,110,2013-02-20 22:15:00
4:35 PM,24.8,6.4,46,30.24,10.0,East,4.6,-,N/A,,Overcast,90,2013-02-20 22:35:00
4:55 PM,25.2,6.1,44,30.23,10.0,East,8.1,-,N/A,,Overcast,80,2013-02-20 22:55:00
5:15 PM,25.5,6.1,44,30.23,10.0,ESE,5.8,-,N/A,,Overcast,110,2013-02-20 23:15:00
5:35 PM,25.7,6.4,44,30.22,10.0,East,5.8,-,N/A,,Overcast,100,2013-02-20 23:35:00
5:55 PM,25.7,6.4,44,30.22,10.0,East,6.9,-,N/A,,Overcast,100,2013-02-20 23:55:00
6:15 PM,25.7,6.6,44,30.22,10.0,ESE,6.9,-,N/A,,Overcast,110,2013-02-21 00:15:00
6:35 PM,25.7,6.1,43,30.22,10.0,East,6.9,-,N/A,,Overcast,100,2013-02-21 00:35:00
6:55 PM,25.7,6.4,44,30.22,10.0,East,5.8,-,N/A,,Overcast,100,2013-02-21 00:55:00
7:15 PM,25.7,6.6,44,30.21,10.0,ESE,8.1,-,N/A,,Mostly Cloudy,110,2013-02-21 01:15:00
7:35 PM,25.7,6.4,44,30.21,10.0,East,3.5,-,N/A,,Mostly Cloudy,90,2013-02-21 01:35:00
7:55 PM,25.5,6.3,44,30.20,10.0,East,9.2,-,N/A,,Overcast,100,2013-02-21 01:55:00
8:15 PM,25.5,6.8,45,30.21,10.0,East,6.9,-,N/A,,Overcast,100,2013-02-21 02:15:00
8:35 PM,25.3,7.0,46,30.21,10.0,East,4.6,-,N/A,,Overcast,100,2013-02-21 02:35:00
8:55 PM,25.2,6.8,46,30.22,10.0,East,6.9,-,N/A,,Overcast,100,2013-02-21 02:55:00
9:15 PM,24.8,7.3,48,30.22,10.0,East,6.9,-,N/A,,Overcast,90,2013-02-21 03:15:00
9:35 PM,24.8,7.7,48,30.21,10.0,East,10.4,-,N/A,,Overcast,100,2013-02-21 03:35:00
9:55 PM,24.6,8.2,50,30.22,10.0,East,6.9,-,N/A,,Overcast,100,2013-02-21 03:55:00
10:15 PM,24.4,7.7,49,30.23,10.0,East,8.1,-,N/A,,Overcast,100,2013-02-21 04:15:00
10:35 PM,24.3,8.2,51,30.24,10.0,East,6.9,-,N/A,,Overcast,90,2013-02-21 04:35:00
10:55 PM,23.9,7.9,51,30.24,10.0,East,10.4,-,N/A,,Overcast,100,2013-02-21 04:55:00
11:15 PM,23.5,7.9,51,30.23,10.0,East,4.6,-,N/A,,Overcast,100,2013-02-21 05:15:00
11:35 PM,23.4,7.9,52,30.22,10.0,ENE,8.1,-,N/A,,Overcast,70,2013-02-21 05:35:00
11:55 PM,23.0,8.2,53,30.22,10.0,East,5.8,-,N/A,,Overcast,90,2013-02-21 05:55:00